Back to race calendar - Race photos - 5k results

Wakefield Hospice Sandal Castle 10k, W. Yorkshire

12th September 2010

Results powered by Sport Systems Ltd and Sport Systems (Northern) Ltd.. Updated 16/9/10
(This is a sortable table - click column heading)
Filter (choose one only!)
Surname:
Cat: Club:
PosNumForenameSurnameCatTeamFinishTime
1113DavidThompsonM35Barnsley AC00:36:52
2732JillyIngmanFBarnsley AC00:38:07
3161AdamCooperM50Wakefield Harriers & AC00:39:01
4146MarkLeggettM45Denby Dale Travellers00:39:29
5138JohnNicholsonM35Wakefield Triathlon Club00:39:44
650GarryPerkinsM55Wolds Veterans00:39:50
7140AnthonyMaycockM50Horsforth Harriers00:39:56
8127MatthewCookeMHartshead RC00:40:16
9255MarkWhitehouseM50Wakefield Harriers & AC00:40:57
10195ChristopherHydeM 00:41:04
11304AndrewChalkleyM40Kingstone Barnsley00:41:13
12299WilliamBuckleyM 00:41:15
13249HadrianKnightM35 00:41:16
14262RobertFieldhouseM 00:41:21
15305PeterMaskillM 00:41:22
16287ScottDalyM35 00:41:26
17277AdrianBrownM35 00:41:29
18203HughAllenM40Wakefield Harriers & AC00:41:31
19104ScottMarrisonM 00:41:32
20294ChrisMitchellM45 00:41:59
2137DavidShepherdM50Holmfirth Harriers00:42:08
22231KevinLongmateMKirkstall Harriers00:42:20
23317GraemeBrineM40 00:42:29
2493IainHanniganM40 00:42:29
25221RichardWilkinsonM35 00:42:31
26256MartinCooperM40 00:42:34
2715MatthewBurtonM 00:42:40
28272JohnLudvigsenM45Wakefield Harriers & AC00:42:43
29162JerrySpencerM60Rotherham AC00:42:55
30345SeanMcCaffreyM40Holmfirth Harriers00:43:18
3173DaveHammondM40 00:43:18
32116MartinSimpsonM55 00:43:24
33276PaulPageM45Bradford Airedale00:43:26
34187IanMicklethwaiteM35Kingstone Barnsley00:43:28
35324IanBrineM35Leeds City00:43:31
36303DaveButlerM40Pudsey Pacers00:43:32
37118AshleyWardMRothwell Harriers00:43:40
38126TonySmithM40Wakefield Harriers & AC00:43:41
39236MatthewFruciM 00:43:49
40199GuyWillardM40Wakefield Triathlon Club00:43:51
4158KenInweregbuM40Barnsley Harriers00:44:03
42265MarkPrestonM45Stainland Lions00:44:08
43280AndrewBrankinM45Kingstone Barnsley00:44:17
44288CraigOrrM45Wakefield Harriers & AC00:44:20
45285PaulAtkinsonM45 00:44:37
46151AlastairBondM 00:44:41
47206JonnyFlocktonM35 00:44:42
4828RichardBradleyM40Denby Dale Travellers00:45:00
49306PaulDowlingM40 00:45:00
50245AndrewBirkettM 00:45:16
51202PatrickGarlandM45 00:45:18
52298DaveBebbingtonM45 00:45:21
53241RobertWhitakerM35Horwich RMI00:45:22
5488RichardHirstM 00:45:24
5579AlKirkM50 00:45:26
56125RobertSharrattM50Burton AC00:45:39
57335DanMooreM 00:45:41
58319AdamSmartMKirklees Triathlon Club00:45:42
59708NicolaSteelF 00:45:44
604JohnMcCarthyM50 00:45:50
61250PaulShieldsM45Dewsbury Road Runners00:45:56
62119RogerWardM50Rothwell Harriers00:46:01
63282JohnJenningsM35 00:46:12
64258NealSpencerM50 00:46:13
6512NickPayneM 00:46:16
66289PatrickO'ConnorM45 00:46:18
67185JonathanTiltM40 00:46:18
6811BarryTownsendM40 00:46:20
69166TomRodgersM35 00:46:20
708PaulKirkM50 00:46:21
71717NikiWhitakerF35City of Hull A C00:46:26
72204PaulCliffordM35 00:46:31
73209DavidNorfolkM50Bingley H & AC00:46:43
74273KeithJonesM40 00:46:49
75625CharlotteColemanF40Denby Dale Travellers00:46:51
76182DanielPapeM 00:46:52
7742SimonGreeneM55Northern Veterans A C00:46:58
78323DavidDeanM50 00:47:07
7943MathewHeseltineM 00:47:12
80661MaxineWordenF40Dewsbury Road Runners00:47:13
81213LeeFoxM 00:47:15
82145RogerLawtonM45 00:47:18
83346DanielTownsendM 00:47:18
8482KevinHirstM45 00:47:20
85101NeilHoldsworthM 00:47:23
8644DavidDixonM45 00:47:23
87341JoeShepherdM 00:47:26
8830ChristopherBowlasM40 00:47:31
89707BeverleySteadF45 00:47:34
90164IanPriceM40 00:47:34
91229DanSiddallM 00:47:36
92165RichardLedgerM 00:47:36
93178ShaunTunstallM40 00:47:38
94337StuartSykesM40 00:47:43
9526RichardMannM45Rodillian Runners00:47:48
96136GerardCoyle Rodillian Runners00:47:48
97326DanDurrantM 00:47:49
98218PaulChiltonM45 00:47:50
99232FraserSugdenM35 00:47:52
100340RhysAndertonM 00:47:54
101320AdamFosterM40 00:47:56
102292StephenGarmanM40 00:48:02
103309RicArmarM35 00:48:10
1042StuartHargreavesM40 00:48:10
105215AidanTupperM 00:48:13
106264FrankChislettM60Halifax Harriers00:48:14
107201ChrisHalseM35 00:48:15
108147MichaelCoyleM35 00:48:19
109724MelGreenFKingstone Barnsley00:48:27
110155PaulHeppenstallM40 00:48:29
111296ChrisPlottsMJ 00:48:31
112334SamSteerF 00:48:40
113253PhilBakerM 00:48:49
114336IanPetrieM50Rothwell Harriers00:48:51
115207JonathanWeirM35 00:48:52
116322PhilipDickersonM35 00:48:53
117248PeterYatesM60Rothwell Harriers00:49:07
118173ChristopherPatrickM40 00:49:20
11954MarkVollansM35 00:49:22
120244ChrisOxleyM45Kingstone Barnsley00:49:28
121160SteveHillM45 00:49:28
12245KlausWitteM35 00:49:29
123726CarmelHarrisonF45Rothwell Harriers00:49:42
124623SallyTemperleyF40 00:49:43
125243ChrisGarnettM 00:49:45
126230AndrewReidM45 00:49:46
127108PatrickBaileyM45Steel City Striders00:49:47
12833SelimKhanM45 00:49:47
129311JoeHowardMJWakefield Triathlon Club00:49:49
13098GaryClayM50 00:50:00
131750SarahEntwistleFDewsbury Road Runners00:50:01
132152KarlGibbonsM 00:50:03
133177IanBuntingM45 00:50:05
134197JasonWilliamsonM35 00:50:09
135184JonathanRistM40 00:50:10
136677KathleenBrankinF45Barnsley AC00:50:15
137290HaydnPlattsM45 00:50:18
138223DavidSnowdenMKnavesmire Harriers00:50:25
13917GraemeDysonM45 00:50:29
140706CarronWatkinsF50 00:50:33
14119MichaelWarrenM45 00:50:34
142180MichaelTunstallM45 00:50:35
143106SeanNewbyM35 00:50:37
144325IanMiburnM55 00:50:48
145208AndrewChambersM45 00:50:49
146693ZoeySturgeonF 00:50:50
147656CarolSharrattF50Hatton Darts R C00:50:56
148342RoryByrneM 00:50:58
1496PaulLandM 00:51:02
150141DaveOwenM40 00:51:02
151751JaneIllingworthF35 00:51:04
152302PhilipAllmanM45 00:51:06
153246ShaunLuntyM40Wakefield Triathlon Club00:51:10
154725SharonSykesF40Wakefield Harriers & AC00:51:13
155330MarkBoxM55Wakefield Harriers & AC00:51:14
15695LeonMachenM 00:51:16
157114MarkSawyerM45Leeds City00:51:16
15820NeilCooperM40 00:51:17
159704LindsayBruceF40 00:51:18
160183RobertColemanM50Doncaster AC00:51:24
161200MatthewPatchM 00:51:31
16283GaryShawM55 00:51:35
163658SarahPercyF40 00:51:37
164192AlanBrookM45 00:51:40
165657EmmaBaxterF35 00:51:41
166251DavidSheltonM65Longwood Harriers00:51:42
167281DavidHarpinM55Longwood Harriers00:51:42
16814JohnParkinsonM45 00:51:50
169175PeterMcEvoyM55 00:51:56
170149AlanGreasleyM55 00:51:57
171193TerryGrechM40 00:52:10
17227PatrickHarrisonM 00:52:12
173225NealPotterM 00:52:13
174128MarkWilliamsMHartshead RC00:52:13
17585CharlieAdamsonM60 00:52:14
176219JohnPittsM50 00:52:17
177295RichardBurnellM55 00:52:20
178278BlairCrumpM45 00:52:21
179266PaulBottomleyM50 00:52:21
18047NormanRoperM55Denby Dale Travellers00:52:27
181748JaneSimpkinsF35 00:52:31
182234PaulBallestaM40 00:52:31
18340DeanHillM40 00:52:31
18476StuartScottM45 00:52:32
1855KeithBancroftM40Fetch Everyone R C00:52:32
186716StephanieGreenwoodF 00:52:42
187137LiamO'BrienM35 00:52:43
188664LisaRutherfordFPontefract Swingers00:52:43
189191JohnDayM50 00:52:46
190711LeeVerityM 00:52:47
191665ZoeCharlesworthFHolmfirth Harriers00:52:47
192122ChrisSweetingM45Wakefield Harriers & AC00:52:48
193120IanChristophersonM60Barnsley Harriers00:52:52
194109JohnGilchristMJ 00:52:53
195673JudithSmithF45 00:52:55
196172AnthonyLarkinM50 00:52:55
197271ValentineMillerM45 00:52:57
198745GailTombsF55Abbey Runners00:53:14
199226NickSindenM 00:53:14
200222AnthonyMottM 00:53:16
201701AnnekaSawyerM40 00:53:22
202130StephenBaxterM 00:53:22
203115Stephen-JohnTinkerM35 00:53:24
204344PeterMooreM45 00:53:32
205179LouisStephens-RamsdenM 00:53:37
20635SteveWalshM 00:53:37
207263StevenThomsonM45 00:53:38
20834JohnRiley (Snr)M55 00:53:40
209616AlexandraRileyF 00:53:41
2107PeterShepherdM40 00:53:44
211189LeeJohnsonM35 00:53:47
212731ClaireLaytonF 00:53:50
213338JonathanAndersonM 00:53:53
214291MichaelSimpkinsM35 00:53:55
215741GeorgieEllisF 00:53:56
21667MartinHectorM50 00:53:58
217666ClaireCarterF35 00:54:00
218321DaveShawM60Rodillian Runners00:54:02
219646EmmaHobsonF40 00:54:05
22061IanFairlambM35 00:54:14
221629CharlotteFairlambF 00:54:14
222235GregoryBarrettM 00:54:15
223675JulieTaffinderF35Rothwell Harriers00:54:19
224158BarrieSmithM50 00:54:24
225674NinaCorfieldF45 00:54:25
226167TonyTaylorM55 00:54:25
227102IanMylesM35 00:54:27
228247RichardJacksonM 00:54:28
229734DeborahHoughF40 00:54:32
230739TracyCottarisF35Rothwell Harriers00:54:37
231700EleanorParkesF 00:54:39
232643KarenFletcherF40Huddersfield Road Runners00:54:45
233667VickyConsterdineF40 00:54:48
234198JoeHoggM40Hyde Park Harriers00:54:52
235267MichaelTillM60 00:54:52
23624GlennElyM35 00:54:53
23753TerryCookeM50Hartshead RC00:54:56
238654JayneLawF45 00:54:57
239758SallyDavidson KellyNDB 00:54:58
2403SimonGittinsM35 00:54:59
241626KateFisherF45 00:55:14
242157GraemeLandM45 00:55:16
243227LukeHulleyM 00:55:16
244103PhilipBarrM55 00:55:23
245196AndyClarkM35 00:55:30
24669PeterRowbothamM60 00:55:32
247261DavidMckennaM45 00:55:36
24836StuartBurdassM40Holmfirth Harriers00:55:37
24913StuartWilsonM 00:55:41
250331BenHarreyM 00:55:44
251318RaymondArcherM45Barnsley AC00:55:44
252171JohnOsborneM 00:55:45
253702DeborahHughesF40 00:55:46
2549MarkTurnerM35 00:55:49
255343MischkaHughesM40 00:55:49
256238RobShepherdM 00:55:49
25772MartinDouglasM50 00:55:52
258651StephCheesemanF35Rothwell Harriers00:55:55
25968GaryRoundM50 00:55:56
26075SamuelWoodgateMJ 00:55:59
26155RobertBatesM50 00:56:01
26278MatthewStephensonM45 00:56:01
263312GeoffHayesM60Barnsley Harriers00:56:02
26491MichaelLevickM40 00:56:05
265603PaulaTurnerF40 00:56:05
266168SimonGannonM40 00:56:07
26763AndrewBennettM55Ackworth RR00:56:07
26866IsaacDellM55Kirkstall Harriers00:56:14
269205RichardHancockM45Kirkstall Harriers00:56:14
270703ChristineHallF50Ackworth RR00:56:19
271339HarryLandM 00:56:19
272749GillianBarberF50Abbey Runners00:56:21
273150DavidBradyM45 00:56:27
274332PaulMilnesM45 00:56:32
275135AlanBirdsworthM40 00:56:32
276297DavidPlottsM40 00:56:32
277649HelenMulesF 00:56:37
278619LisaBinksF 00:56:42
279608AnyaMillicanF35 00:56:45
280655MichelleColleyFHorsforth Harriers00:56:46
281753FayeDickinsonF 00:56:47
282644JoannePatricksonF40 00:56:53
283111JonathanPatricksonM40 00:56:54
284636DotHandF65Rodillian Runners00:56:59
28552AlanTattersallM50Ackworth RR00:57:08
286648DawnJacksonF45Steel City Striders00:57:09
287647PamelaCoverF35 00:57:11
288668LauraBrownF40 00:57:14
28932AlexCurryM40 00:57:15
290756KatePankhurstFHyde Park Harriers00:57:17
291614ClaireProctorF 00:57:18
292194CevinBarkerM35 00:57:18
293684HelenBottomFMeltham AC00:57:22
29470KeithThorneM55 00:57:23
295284PaulSturgeonM60 00:57:29
296621AlexandraHunterF 00:57:38
297740GillDayF50Rodillian Runners00:57:38
298133PaulCollierM35 00:57:39
299163MichaelCubittM60Wakefield Harriers & AC00:57:42
300283KeithPendleburyM60 00:57:45
301190StuartAndersonM70Wakefield Harriers & AC00:57:52
302712TracyMottF35Stainland Lions00:57:56
303676FionaCooperF40 00:58:01
304270ColinGreenM65Not Fast RC00:58:02
305269GarrySeymourM55Barnsley AC00:58:03
30651DominicSheerinM 00:58:10
307628RebeccaTownsendF 00:58:15
30860PhilipTownsendM55 00:58:15
309669LouiseWalkerF35Rodillian Runners00:58:26
31064AdamSykesMJ 00:58:32
311275MarkMarshallM 00:58:32
312107TerryReddingtonM55 00:58:37
313328GarethFlowerM35 00:58:38
314671SuzanneSlaterF35 00:58:40
315254MichaelKellyM55 00:58:42
316663AliceGilchristF 00:58:48
317743CatherineMcMahonF 00:58:48
318279AndrewHinchcliffeM 00:58:53
3191JohnBurkeM40 00:58:56
320630JulieSykesF50Denby Dale Travellers00:58:58
321121JimLawM50 00:59:03
322260JamieBensonM 00:59:08
32362BobSpawtonM50 00:59:08
324723SusanFosterF35 00:59:15
325316JonathanAveyardM 00:59:32
326757SandyGeorgeF40 00:59:36
327653Claire MundyFHorsforth Harriers00:59:46
32899DanielRichM35 00:59:47
329100JohnBaileyM50 00:59:54
330613LyndseyBrownF35 00:59:57
331746KarenOrrF40 00:59:58
332615HelenMannF45Rodillian Runners00:59:59
333681TraceyThompsonF40 01:00:02
334212NeilRipleyM 01:00:15
335268RafaratAhmedM 01:00:16
33610MelvynBurtonM55 01:00:19
337169MichaelPoolM60 01:00:22
338727RebeccaMobleyF 01:00:22
33946IanTippenM60Army01:00:23
340662AlisonMarsdenF40Kingstone Barnsley01:00:26
341174RobSmittenM50 01:00:34
34229StephenWarnerM55Denby Dale Travellers01:00:43
343637KarenOrmerodF45Denby Dale Travellers01:00:44
344642JulieMartinF 01:00:51
34531DavidIngramM45 01:00:52
346301TrevorPerryM60 01:01:03
347300StevenMegsonM35 01:01:03
348327MedicayMoyoM35 01:01:23
349110JohnWhitesideM35 01:01:25
350634JoRodgerNDB 01:01:26
351602SharonRichmanF40 01:01:29
352686CatherineDennisF 01:01:30
353233MattWhitakerF 01:01:37
354721FrancesMountainF 01:01:41
355153StuartKnightM60 01:01:41
356239ThomasMountainM 01:01:42
357618CatherineHirstF45 01:01:47
358730JaneBabbageF40 01:01:48
359612LouisePavittF40 01:01:53
36021MarkPavittM40 01:01:53
361142PhilGildonM 01:01:54
362624BevFosterF45 01:01:58
363695JessicaSmithF 01:02:08
364697TracyWooffindinF35 01:02:08
365186SimonWooffindinM 01:02:09
366680JulieHeatonF40 01:02:10
36794TonyMorleyM40 01:02:11
368188JohnKimberleyM45 01:02:15
36984FrazerMaxwellM 01:02:18
370627DianeKolatF40Holmfirth Harriers01:02:21
371691JudithSparkF50 01:02:25
372307DanielWebsterM 01:02:28
373308James LeeScholesM 01:02:28
374652CarolineBooth-BurkeF40 01:02:41
375274MarioCannasM60 01:02:43
376139LeeBaxendaleM40 01:02:46
37790JozefLomakoM40 01:02:47
378640ElizabethGoodsonF35 01:02:47
379705SueTalbotF50 01:02:56
380286DanielDobbsM 01:03:00
381744TraceyBlackburnF40 01:03:00
382672PippaShevillF45 01:03:03
383144MartinShevillM55 01:03:03
38480PaulLeeM45 01:03:16
385754SuzannePeaseF35 01:03:18
386620MelanieRileyF 01:03:19
387722LouiseWhitakerF 01:03:28
388747DebraBarkerF45 01:03:43
389755KayFawcettF40Hyde Park Harriers01:03:47
390645ShonaWykesF40 01:03:54
391735AnneCooperFEden Runners01:03:55
392719LindsayMoulsonF35 01:04:00
39371JamesHumblesM 01:04:02
394148RobertMarshallM 01:04:03
395313DerekMitchellM65Eccleshill Road Runners01:04:11
396240BruceHetheringtonM50Abbey Runners01:04:15
397259StephenBoothM55 01:04:27
398293JulianHarrisM45 01:04:36
399659HelenHothamF35 01:04:40
400176JonTandyM45 01:04:45
401728ChristineBlackburnF40 01:04:52
402738AndreaSpencerF35 01:04:59
403688PamelaTarnF40 01:05:01
404710HelenBarrowsF 01:05:06
405605HelenSloanF45 01:05:07
40638IanWightmanM40 01:05:11
407720JenniferBrookF 01:05:11
40877BenEntwistleM45 01:05:18
409682EshaGibbsF 01:05:29
410696MariaGrahamFKingstone Barnsley01:05:34
411713CharlotteLeeF 01:05:35
412617ZoeHeppenstallF 01:06:05
413714JulieReidF45 01:06:10
414709CarolineShinglesF45Abbey Runners01:06:36
415742JaneBrankinF40Kingstone Barnsley01:06:41
416679CatherineMarsdenF 01:07:11
417733MojisolaSmithF35 01:07:12
418159CraigWhitfieldM35 01:07:22
419638AlisonFraserF35 01:07:27
42087AlexFraserM35 01:07:27
42189JustinLoganM35 01:07:32
42225LaurieDummettM40 01:07:34
423123MarkBickertonM35 01:07:38
424635SarahLeeF40 01:07:41
425242GerardByrneM50 01:07:46
42656PhillipCockerM50 01:07:48
427310KayinosiMunthaliM35 01:07:50
428214KennethBingleyM75Ackworth RR01:08:03
429689SallyHughesF35 01:08:14
430257DonaldBamforthM70Holmfirth Harriers01:08:17
431609PaulaBrownF35 01:08:24
432639LouiseWrackF 01:08:48
433685HelenCampbellF35 01:09:08
434631AnnetteBlytheF45 01:09:17
43559IainCramphornMJ 01:09:23
43622JamesHicklingM35 01:09:35
437715NicolaKemmenoeF 01:09:49
438314MarkHorlerM40 01:09:49
439156JamesEstallM40 01:09:51
440752DawnSketchleyF40 01:09:55
441210AndrewHollingM35 01:10:19
442690PaulaHusbandF40 01:10:37
443606TraceyColdwellF40 01:10:53
444641AlisonBuckleF45Stainland Lions01:10:56
445622JacquelineWalkerF55 01:11:08
44686TonyDeanM60Ackworth RR01:11:31
44748MurrayLucasM50 01:12:34
448692CatherineBrookF45 01:13:01
449650SusanWittyF35 01:14:16
450737KatherineLeeF 01:14:40
451718EmmaSimpsonF 01:14:40
452333DanielSenorM 01:15:49
453729JillSedgewickF35 01:17:54
454220AftabBhattiM40 01:19:23
45557GarnettOrfordM70 01:19:27
456687FionaLittleF40Kirklees Joggers01:19:27
457315JimAveyardM60 01:20:19
458154TomMarsdenMJ 01:22:01
459633TinaNewsomeF45 01:23:07
Back to race calendar - Top of page